{"data":{"norad_id":56318,"epoch":"2026-09-20T22:53:47.451552Z","epoch_age_seconds":69689,"freshness":"FRESH","line1":"1 56318U 23058B   26263.95402143  .00000662  00000+0  22822-4 0  9991","line2":"2 56318  97.2843 260.6876 0001595  93.8178 266.3247 15.33439936187359","mean_motion":15.33439936,"eccentricity":0.0001595,"inclination_deg":97.2843,"raan_deg":260.6876,"arg_perigee_deg":93.8178,"mean_anomaly_deg":266.3247,"bstar":2.2822e-5,"rev_number":18735,"period_min":93.906514770723,"perigee_km":464.46667202976,"apogee_km":466.64981081177,"semimajor_km":6843.6952414208,"source":"CELESTRAK","updated_at":"2026-09-21T09:00:33.400607Z"}}